Change the Weather History Date:

Wednesday, March 5, 2014

  Actual Average Record
Temperature  
Mean Temperature 16 °F -  
Max Temperature 23 °F 39 °F 66 °F (2004)
Min Temperature 9 °F 24 °F 2 °F (2015)
Degree Days  
Heating Degree Days 49    
Moisture  
Dew Point 15 °F    
Average Humidity 83    
Maximum Humidity 96    
Minimum Humidity 63    
Precipitation  
Precipitation 0.02 in - - ()
Snow  
Snow 0.00 in - - ()
Snow Depth 1.00 in    
Sea Level Pressure  
Sea Level Pressure 30.36 in    
Wind  
Wind Speed 11 mph (ENE)    
Max Wind Speed 21 mph    
Max Gust Speed 26 mph    
Visibility 8 miles    
Events Snow    
Averages and records for this station are not official NWS values.
T = Trace of Precipitation, MM = Missing Value Source: NWS Daily Summary

Daily Weather History Graph

Daily Weather History Graph

Search for Another Location

Airport or City:

Trip Planner

Search our weather history database for the weather conditions in past years. The results will help you decide how hot, cold, wet, or windy it might be!

Date:

Astronomy

Mar. 05, 2014 Rise Set
Actual Time 7:12 AM EST 6:40 PM EST
Civil Twilight 6:44 AM EST 7:07 PM EST
Nautical Twilight 6:13 AM EST 7:39 PM EST
Astronomical Twilight 5:41 AM EST 8:11 PM EST
Moon 9:36 AM EST (3/5) 11:50 PM EST (3/5)
Length of Visible Light 12h 22m
Length of Day
11h 28m
Waxing Crescent, 23% of the Moon is Illuminated
Mar 5
Waxing Crescent
Mar 8
First Quarter
Mar 16
Full
Mar 23
Last Quarter
Mar 30
New

Hourly Weather History & Observations

Time (EST) Temp. Windchill Dew Point Humidity Pressure Visibility Wind Dir Wind Speed Gust Speed Precip Events Conditions
12:58 AM 13.3 °F 3.0 °F 7.2 °F 77% 30.25 in 10.0 mi East 6.9 mph - N/A   Clear
1:58 AM 13.1 °F 7.1 °F 7.0 °F 77% 30.27 in 10.0 mi East 3.5 mph - N/A   Clear
2:58 AM 13.1 °F 5.4 °F 6.4 °F 75% 30.27 in 10.0 mi ENE 4.6 mph - N/A   Clear
3:58 AM 11.3 °F 3.3 °F 7.0 °F 83% 30.27 in 10.0 mi East 4.6 mph - N/A   Scattered Clouds
4:58 AM 9.7 °F -1.3 °F 6.3 °F 86% 30.30 in 10.0 mi NE 6.9 mph - N/A   Partly Cloudy
5:58 AM 10.9 °F 0.2 °F 7.0 °F 84% 30.32 in 10.0 mi NE 6.9 mph - N/A   Clear
6:58 AM 11.7 °F 1.1 °F 7.9 °F 85% 30.34 in 10.0 mi ENE 6.9 mph - N/A   Mostly Cloudy
7:58 AM 15.4 °F 4.6 °F 9.7 °F 78% 30.35 in 10.0 mi ENE 8.1 mph - N/A   Clear
8:58 AM 18.0 °F 6.1 °F 9.1 °F 68% 30.39 in 10.0 mi ENE 10.4 mph - N/A   Partly Cloudy
9:58 AM 20.3 °F 6.6 °F 9.3 °F 63% 30.40 in 10.0 mi ENE 15.0 mph - N/A   Overcast
10:28 AM 21.2 °F 8.9 °F 10.4 °F 63% 30.35 in 10.0 mi NE 12.7 mph - N/A   Mostly Cloudy
10:58 AM 21.2 °F 8.9 °F 10.8 °F 64% 30.40 in 10.0 mi ENE 12.7 mph - N/A   Partly Cloudy
11:58 AM 22.6 °F 10.1 °F 13.8 °F 69% 30.39 in 10.0 mi ENE 13.8 mph - N/A   Mostly Cloudy
12:27 PM 23.0 °F 10.1 °F 17.6 °F 80% 30.34 in 10.0 mi ENE 15.0 mph - N/A   Mostly Cloudy
12:29 PM 23.0 °F 10.1 °F 17.6 °F 80% 30.34 in 10.0 mi ENE 15.0 mph - N/A   Mostly Cloudy
12:40 PM 21.2 °F 7.8 °F 17.6 °F 86% 30.35 in 10.0 mi ENE 15.0 mph - N/A   Overcast
12:45 PM 21.2 °F 7.8 °F 17.6 °F 86% 30.34 in 10.0 mi ENE 15.0 mph - N/A   Overcast
12:58 PM 22.1 °F 8.5 °F 18.3 °F 85% 30.40 in 10.0 mi East 16.1 mph - 0.00 in   Overcast
1:14 PM 21.2 °F 8.3 °F 19.4 °F 93% 30.34 in 10.0 mi East 13.8 mph - N/A Snow Light Snow
1:25 PM 23.0 °F 11.1 °F 19.4 °F 86% 30.33 in 9.0 mi East 12.7 mph - N/A   Mostly Cloudy
1:34 PM 23.0 °F 10.6 °F 19.4 °F 86% 30.33 in 4.0 mi East 13.8 mph - N/A Snow Light Snow
1:39 PM 23.0 °F 11.1 °F 19.4 °F 86% 30.33 in 3.0 mi East 12.7 mph - N/A Snow Light Snow
1:58 PM 22.5 °F 10.5 °F 20.1 °F 91% 30.38 in 5.0 mi East 12.7 mph - 0.00 in Snow Light Snow
2:09 PM 23.0 °F 10.6 °F 21.2 °F 93% 30.33 in 3.0 mi East 13.8 mph - N/A Snow Light Snow
2:36 PM 23.0 °F 10.1 °F 21.2 °F 93% 30.33 in 1.5 mi East 15.0 mph - N/A Snow Light Snow
2:58 PM 22.5 °F 10.5 °F 21.4 °F 96% 30.39 in 1.5 mi ENE 12.7 mph - 0.00 in Snow Light Snow
3:58 PM 21.9 °F 9.2 °F 19.9 °F 92% 30.41 in 5.0 mi ENE 13.8 mph - 0.01 in Snow Light Snow
4:31 PM 23.0 °F 8.7 °F 19.4 °F 86% 30.35 in 2.0 mi ENE 18.4 mph - N/A Snow Light Snow
4:58 PM 21.6 °F 8.2 °F 19.8 °F 93% 30.42 in 2.0 mi ENE 15.0 mph - 0.00 in Snow Light Snow
5:41 PM 21.2 °F 7.8 °F 19.4 °F 93% 30.36 in 2.0 mi ENE 15.0 mph - N/A Snow Light Snow
5:58 PM 21.0 °F 7.6 °F 19.9 °F 96% 30.43 in 2.0 mi ENE 15.0 mph - 0.00 in Snow Light Snow
6:58 PM 20.5 °F 6.9 °F 18.1 °F 91% 30.44 in 6.0 mi ENE 15.0 mph - 0.01 in   Overcast
7:55 PM 20.1 °F 6.4 °F 16.9 °F 87% 30.43 in 10.0 mi East 15.0 mph - N/A   Overcast
8:58 PM 20.8 °F 5.1 °F 13.8 °F 74% 30.43 in 10.0 mi East 20.7 mph 26.5 mph N/A   Clear
9:58 PM 20.3 °F 6.6 °F 14.4 °F 78% 30.43 in 10.0 mi ENE 15.0 mph - N/A   Clear
10:58 PM 19.6 °F 3.9 °F 14.2 °F 80% 30.43 in 10.0 mi East 19.6 mph - N/A   Clear
11:58 PM 18.3 °F 3.1 °F 12.9 °F 79% 30.43 in 10.0 mi ENE 17.3 mph - N/A   Clear